Location: Marquette
(46.5440°N, 87.3950°W)
Time: 17:24:15
(UTC-04:00)

Daily predictions for brighter satellites

Satellite Brightness Start Highest point End
(mag) Time Altitude Azimuth Time Altitude Azimuth Time Altitude Azimuth
Cosmos 1939 Rocket 4.3 22:00:08 10° SSW 22:04:01 40° W 22:07:58 10° NNW
BREEZE M DEB (TANK) 3.9 21:51:18 10° WNW 22:05:03 68° SW 22:09:04 10° SE
ISS -2.5 22:02:34 10° W 22:05:43 44° NNW 22:08:53 10° ENE
Cosmos 841 Rocket 3.7 22:02:46 10° S 22:07:49 51° ESE 22:12:56 10° NNE
Cosmos 2298 Rocket 4.1 22:02:34 10° NNW 22:07:55 88° WSW 22:13:12 10° SSE
Cosmos 292 Rocket 4.1 22:03:36 10° S 22:08:09 46° ESE 22:12:42 10° NNE
Cosmos 2233 Rocket 4.2 22:03:57 10° S 22:10:08 82° W 22:16:24 10° N
CZ-4C R/B 3.5 22:08:13 10° NNW 22:14:55 49° NE 22:22:30 10° ESE
USA 234 3.5 22:08:42 10° ENE 22:14:57 45° SE 22:21:12 10° SSW
Resurs 01 Rocket 2.8 22:12:15 10° S 22:16:26 42° W 22:20:38 10° NNW
ATLAS CENTAUR R/B 4.4 22:09:40 10° SW 22:16:35 80° SE 22:38:34 10° NE
Cosmos 1340 Rocket 3.1 22:14:15 10° S 22:18:11 52° E 22:22:11 10° NNE
NOSS 3-2 (A) 4.4 22:14:26 10° WSW 22:20:21 56° NW 22:27:01 10° NE
USA 32 4.1 22:15:25 10° N 22:20:40 71° E 22:25:53 10° SSE
Cosmos 2237 4.4 22:17:57 10° NNW 22:23:41 63° ENE 22:29:15 11° SE
NOSS 3-2 (C) 4.0 22:21:42 10° SW 22:27:41 66° NW 22:34:25 10° NE
SL-08 RB Rocket 3.8 22:24:47 10° SSE 22:29:16 65° ENE 22:33:50 10° N
Meteor 1-13 Rocket 4.4 22:24:53 10° S 22:30:49 87° W 22:36:49 10° N
ERS-2 4.5 22:28:38 10° SSW 22:31:32 22° W 22:34:27 10° NW
ERS-1 Rocket 3.2 22:27:44 10° SSE 22:32:40 59° ENE 22:37:36 10° N
Cosmos 2360 Rocket 2.3 22:32:44 10° NNW 22:38:24 78° WSW 22:43:55 11° SSE
CENTAUR R/B 2.5 22:33:58 10° SSW 22:40:00 81° SE 22:47:01 10° NE
Cosmos 2219 Rocket 3.0 22:35:48 10° NNW 22:41:01 38° NE 22:45:43 12° ESE
Meteor 1-15 Rocket 4.3 22:36:44 10° N 22:42:29 71° ENE 22:47:48 12° SSE
Cosmos 1025 Rocket 4.0 22:40:14 13° SSE 22:43:26 30° E 22:47:17 10° NNE
Cosmos 1356 3.4 22:41:59 10° S 22:45:27 90° WSW 22:48:57 10° N
Iridium 90 4.1 22:44:44 22° SE 22:45:39 32° E 22:47:38 10° NNE
Cosmos 2333 4.5 22:40:09 10° NNW 22:45:46 59° ENE 22:50:29 15° SE
Aureole 2 Rocket 3.9 22:46:18 10° NW 22:48:46 25° WSW 22:51:07 10° SSW
MetOp-A 4.4 22:44:27 10° S 22:49:47 69° WSW 22:55:09 10° NNW
CZ-2C R/B 4.4 22:50:58 13° ESE 22:55:01 29° ENE 22:59:51 10° N
Cosmos 1513 Rocket 4.5 22:49:48 10° S 22:55:55 88° E 23:02:11 10° N
Cosmos 1455 Rocket 4.0 22:52:13 10° NNW 22:56:24 45° W 23:00:35 10° SSW
Okean 2 3.7 22:53:27 14° SSE 22:56:53 50° E 23:00:57 10° NNE
Cosmos 1125 Rocket 3.5 22:52:43 10° NNW 22:58:00 84° ENE 23:02:08 17° SSE
SPOT 1/Viking Rocket 3.7 22:55:11 16° SSE 22:59:20 63° ENE 23:04:27 10° N
Cosmos 2034 Rocket 3.9 22:56:12 10° S 23:02:21 80° E 23:08:33 10° N
H-2A R/B 2.3 22:57:47 10° S 23:02:42 63° W 23:07:46 10° NNW
BREEZE-M DEB 4.0 22:59:32 10° WNW 23:03:05 89° SSW 23:04:39 24° ESE
USA 245 3.6 23:00:38 15° S 23:03:42 78° WSW 23:08:30 10° NNW
Helios 1A 3.0 23:00:58 18° SSE 23:04:02 75° ENE 23:08:13 10° N
Cosmos 1464 Rocket 4.3 22:58:08 10° SSW 23:04:30 75° W 23:10:55 10° N
Landsat 7 4.1 23:02:11 18° SE 23:05:35 57° ENE 23:10:16 10° N
Cosmos 1356 Rocket 3.6 23:07:09 16° S 23:10:24 58° E 23:14:39 10° NNE
Cosmos 2333 Rocket 2.6 23:06:08 10° NNW 23:11:46 56° ENE 23:15:46 19° SE
SL-16 R/B 4.2 23:07:54 10° N 23:11:47 18° NE 23:15:40 10° E
COSMOS 2428 2.7 23:09:00 10° NNW 23:14:43 88° ENE 23:18:42 20° SSE
Cosmos 836 Rocket 4.4 23:09:53 10° SSW 23:15:04 86° ESE 23:20:20 10° NNE
COSMOS 2455 4.2 23:14:03 17° ESE 23:15:35 19° ESE 23:19:40 10° ENE
Cosmos 1980 4.5 23:15:46 10° NNW 23:21:09 42° NE 23:24:56 18° ESE
Spot 1 4.1 23:19:22 24° SE 23:21:38 61° ENE 23:25:40 10° N
Helios 1B rocket 2.5 23:18:00 10° NNE 23:22:06 57° E 23:24:34 22° S
Terra 2.0 23:21:33 23° SE 23:24:23 58° ENE 23:29:05 10° N
DMSP B5D2-2 4.1 23:19:11 10° NNE 23:24:30 89° E 23:29:45 10° SSW
ARGOS 4.5 23:20:00 10° SSW 23:24:52 34° W 23:29:48 10° NNW
Cosmos 1634 Rocket 4.3 23:23:14 20° SSE 23:27:36 54° E 23:33:45 10° NNE
Cosmos 540 Rocket 4.1 23:22:53 10° SW 23:27:59 58° WNW 23:33:07 10° NNE
SPOT 5 2.9 23:26:22 20° S 23:29:26 66° WSW 23:34:05 10° NNW
Abrixas rocket 2.7 23:26:54 10° W 23:30:06 59° N 23:32:56 13° E
Cosmos 2297 Rocket 3.5 23:29:00 20° ESE 23:30:25 22° E 23:34:37 10° NE
Lacrosse 5 rocket 3.1 23:27:54 10° WNW 23:31:14 22° SW 23:33:08 16° SSW
SJ 16-02 2.6 23:28:26 10° NW 23:32:27 34° WSW 23:35:37 15° SSW
Cosmos 1892 Rocket 4.3 23:31:41 26° SE 23:33:11 34° E 23:37:07 10° NNE
Cosmos 2227 Rocket 3.3 23:32:28 22° SE 23:34:10 26° ESE 23:38:45 10° NE
Tiangong 2 2.0 23:32:32 10° WSW 23:35:15 30° SSW 23:35:15 30° SSW
Cosmos 2228 3.7 23:32:43 10° N 23:36:48 40° ENE 23:38:31 27° SE
IGS 5A 3.4 23:35:34 28° SSE 23:37:41 88° ENE 23:41:53 10° NNW
Cosmos 2237 Rocket 2.7 23:32:55 10° NNW 23:38:31 52° ENE 23:41:55 23° SE
Cosmos 1953 4.3 23:39:31 10° NNE 23:42:12 17° ENE 23:43:28 15° E
BREEZE-M R/B 3.1 23:39:48 10° WNW 23:42:38 40° N 23:44:30 14° ENE
ISS -2.1 23:39:39 10° WNW 23:42:40 32° N 23:45:40 10° ENE
Cosmos 1726 Rocket 3.6 23:44:11 10° N 23:48:37 70° E 23:50:28 34° SSE
Cosmos 1066 Rocket 4.2 23:44:56 16° SSW 23:49:18 79° WNW 23:54:50 10° N
Cosmos 1544 3.3 23:46:23 10° NNW 23:50:05 64° W 23:51:33 33° SSW
Okean 1-7 Rocket 3.6 23:48:21 26° S 23:50:53 86° ESE 23:55:28 10° N
